Location: Spor
(46.2167°N, 11.0500°E)
Time: 23:26:48
(UTC+00:00)

USA 81 - Pass Details

Date: 07 June 2020
Orbit: 786 x 787 km, 85.0° (Epoch: 09 July)

Event Time Altitude Azimuth Distance (km) Brightness Sun altitude
Exits shadow 00:30:18 33° 222° (SW) 1,299 4.7 -18.9°
Maximum altitude 00:32:23 52° 279° (W) 971 4.4 -18.8°
Drops below altitude 10° 00:37:33 10° 357° (N) 2,358 7.5 -18.5°
Sets 00:39:59 0° 2° (N) 3,291 8.6 -18.3°
